Time,TemperatureF,DewpointF,PressureIn,WindDirection,WindDirectionDegrees,WindSpeedMPH,WindSpeedGustMPH,Humidity,HourlyPrecipIn,Conditions,Clouds,dailyrainin,SolarRadiationWatts/m^2,SoftwareType,DateUTC
2013-12-20 00:22:00,37.0,35.0,-100.00,SE,143,5.0,7.0,92,0.00,,,0.03,0.000000,,2013-12-20 08:22:00,
2013-12-20 00:32:00,37.0,35.0,-100.00,SE,143,5.0,7.0,92,0.00,,,0.03,0.000000,,2013-12-20 08:32:00,
2013-12-20 00:52:00,37.0,35.0,-100.00,SE,143,5.0,7.0,92,0.00,,,0.03,0.000000,,2013-12-20 08:52:00,
2013-12-20 02:23:00,35.0,33.0,-100.00,SE,132,4.0,8.0,93,0.00,,,0.03,0.000000,,2013-12-20 10:23:00,
2013-12-20 02:33:00,35.0,33.0,-100.00,SE,132,4.0,8.0,93,0.00,,,0.03,0.000000,,2013-12-20 10:33:00,
2013-12-20 02:42:00,35.0,33.0,-100.00,SE,132,4.0,8.0,93,0.00,,,0.03,0.000000,,2013-12-20 10:42:00,
2013-12-20 02:53:00,35.0,33.0,-100.00,SE,132,4.0,8.0,93,0.00,,,0.03,0.000000,,2013-12-20 10:53:00,
2013-12-20 03:22:00,35.0,33.0,-100.00,NNE,12,4.0,8.0,91,0.00,,,0.03,0.000000,,2013-12-20 11:22:00,
2013-12-20 03:33:00,35.0,33.0,-100.00,NNE,12,4.0,8.0,91,0.00,,,0.03,0.000000,,2013-12-20 11:33:00,
2013-12-20 03:42:00,35.0,33.0,-100.00,NNE,12,4.0,8.0,91,0.00,,,0.03,0.000000,,2013-12-20 11:42:00,
2013-12-20 04:23:00,35.0,32.0,-100.00,North,11,5.0,8.0,89,0.00,,,0.03,0.000000,,2013-12-20 12:23:00,
2013-12-20 04:32:00,35.0,32.0,-100.00,North,11,5.0,8.0,89,0.00,,,0.03,0.000000,,2013-12-20 12:32:00,
2013-12-20 04:42:00,35.0,32.0,-100.00,North,11,5.0,8.0,89,0.00,,,0.03,0.000000,,2013-12-20 12:42:00,
2013-12-20 04:52:00,35.0,32.0,-100.00,North,11,5.0,8.0,89,0.00,,,0.03,0.000000,,2013-12-20 12:52:00,
2013-12-20 05:22:00,34.0,30.0,-100.00,North,8,9.0,11.0,84,0.00,,,0.03,0.000000,,2013-12-20 13:22:00,
2013-12-20 05:32:00,34.0,30.0,-100.00,North,8,9.0,11.0,84,0.00,,,0.03,0.000000,,2013-12-20 13:32:00,
2013-12-20 05:42:00,34.0,30.0,-100.00,North,8,9.0,11.0,84,0.00,,,0.03,0.000000,,2013-12-20 13:42:00,
2013-12-20 05:53:00,34.0,30.0,-100.00,North,8,9.0,11.0,84,0.00,,,0.03,0.000000,,2013-12-20 13:53:00,
2013-12-20 06:22:00,32.0,29.0,-100.00,North,-999,0.0,14.0,89,0.00,,,0.03,0.000000,,2013-12-20 14:22:00,
2013-12-20 06:32:00,32.0,29.0,-100.00,North,-999,0.0,14.0,89,0.00,,,0.03,0.000000,,2013-12-20 14:32:00,
2013-12-20 06:42:00,32.0,29.0,-100.00,North,-999,0.0,14.0,89,0.00,,,0.03,0.000000,,2013-12-20 14:42:00,
2013-12-20 08:23:00,34.0,28.0,-100.00,North,8,6.0,9.0,79,-99.99,,,0.03,26.000000,,2013-12-20 16:23:00,
2013-12-20 08:33:00,34.0,28.0,-100.00,North,8,6.0,9.0,79,-99.99,,,0.03,26.000000,,2013-12-20 16:33:00,
2013-12-20 08:43:00,34.0,28.0,-100.00,North,8,6.0,9.0,79,-99.99,,,0.03,26.000000,,2013-12-20 16:43:00,
2013-12-20 08:53:00,34.0,28.0,-100.00,North,8,6.0,9.0,79,-99.99,,,0.03,26.000000,,2013-12-20 16:53:00,
2013-12-20 09:22:00,37.0,28.0,-100.00,NNE,13,9.0,13.0,70,0.00,,,0.03,155.000000,,2013-12-20 17:22:00,
2013-12-20 09:32:00,37.0,28.0,-100.00,NNE,13,9.0,13.0,70,0.00,,,0.03,155.000000,,2013-12-20 17:32:00,
2013-12-20 09:42:00,37.0,28.0,-100.00,NNE,13,9.0,13.0,70,0.00,,,0.03,155.000000,,2013-12-20 17:42:00,
2013-12-20 09:52:00,37.0,28.0,-100.00,NNE,13,9.0,13.0,70,0.00,,,0.03,155.000000,,2013-12-20 17:52:00,
2013-12-20 10:22:00,43.0,30.0,-100.00,North,8,5.0,11.0,61,0.00,,,0.03,405.000000,,2013-12-20 18:22:00,
2013-12-20 10:32:00,43.0,30.0,-100.00,North,8,5.0,11.0,61,0.00,,,0.03,405.000000,,2013-12-20 18:32:00,
2013-12-20 10:42:00,43.0,30.0,-100.00,North,8,5.0,11.0,61,0.00,,,0.03,405.000000,,2013-12-20 18:42:00,
2013-12-20 10:52:00,43.0,30.0,-100.00,North,8,5.0,11.0,61,0.00,,,0.03,405.000000,,2013-12-20 18:52:00,
2013-12-20 11:22:00,48.0,30.0,-100.00,WSW,238,2.0,9.0,49,0.00,,,0.03,535.000000,,2013-12-20 19:22:00,
2013-12-20 11:32:00,48.0,30.0,-100.00,WSW,238,2.0,9.0,49,0.00,,,0.03,535.000000,,2013-12-20 19:32:00,
2013-12-20 11:42:00,48.0,30.0,-100.00,WSW,238,2.0,9.0,49,0.00,,,0.03,535.000000,,2013-12-20 19:42:00,
2013-12-20 11:52:00,48.0,30.0,-100.00,WSW,238,2.0,9.0,49,0.00,,,0.03,535.000000,,2013-12-20 19:52:00,
2013-12-20 12:22:00,48.0,31.0,-100.00,SSW,192,6.0,11.0,51,0.00,,,0.03,600.000000,,2013-12-20 20:22:00,
2013-12-20 12:32:00,48.0,31.0,-100.00,SSW,192,6.0,11.0,51,0.00,,,0.03,600.000000,,2013-12-20 20:32:00,
2013-12-20 12:42:00,48.0,31.0,-100.00,SSW,192,6.0,11.0,51,0.00,,,0.03,600.000000,,2013-12-20 20:42:00,
2013-12-20 12:52:00,48.0,31.0,-100.00,SSW,192,6.0,11.0,51,0.00,,,0.03,600.000000,,2013-12-20 20:52:00,
2013-12-20 13:22:00,46.0,31.0,-100.00,South,173,10.0,17.0,55,0.00,,,0.03,597.000000,,2013-12-20 21:22:00,
2013-12-20 13:33:00,46.0,31.0,-100.00,South,173,10.0,17.0,55,0.00,,,0.03,597.000000,,2013-12-20 21:33:00,
2013-12-20 13:43:00,46.0,31.0,-100.00,South,173,10.0,17.0,55,0.00,,,0.03,597.000000,,2013-12-20 21:43:00,
2013-12-20 13:53:00,46.0,31.0,-100.00,South,173,10.0,17.0,55,0.00,,,0.03,597.000000,,2013-12-20 21:53:00,
2013-12-20 14:23:00,48.0,31.0,-100.00,South,175,8.0,17.0,52,0.00,,,0.03,526.000000,,2013-12-20 22:23:00,
2013-12-20 14:33:00,48.0,31.0,-100.00,South,175,8.0,17.0,52,0.00,,,0.03,526.000000,,2013-12-20 22:33:00,
2013-12-20 14:42:00,48.0,31.0,-100.00,South,175,8.0,17.0,52,0.00,,,0.03,526.000000,,2013-12-20 22:42:00,
2013-12-20 14:52:00,48.0,31.0,-100.00,South,175,8.0,17.0,52,0.00,,,0.03,526.000000,,2013-12-20 22:52:00,
2013-12-20 15:22:00,54.0,34.0,-100.00,SSE,162,2.0,14.0,46,0.00,,,0.02,399.000000,,2013-12-20 23:22:00,
2013-12-20 15:33:00,54.0,34.0,-100.00,SSE,162,2.0,14.0,46,0.00,,,0.02,399.000000,,2013-12-20 23:33:00,
2013-12-20 15:42:00,54.0,34.0,-100.00,SSE,162,2.0,14.0,46,0.00,,,0.02,399.000000,,2013-12-20 23:42:00,
2013-12-20 15:53:00,54.0,34.0,-100.00,SSE,162,2.0,14.0,46,0.00,,,0.02,399.000000,,2013-12-20 23:53:00,
2013-12-20 16:22:00,48.0,32.0,-100.00,SSE,158,3.0,8.0,54,0.00,,,0.00,127.000000,,2013-12-21 00:22:00,
2013-12-20 16:32:00,48.0,32.0,-100.00,SSE,158,3.0,8.0,54,0.00,,,0.00,127.000000,,2013-12-21 00:32:00,
2013-12-20 16:42:00,48.0,32.0,-100.00,SSE,158,3.0,8.0,54,0.00,,,0.00,127.000000,,2013-12-21 00:42:00,
2013-12-20 16:52:00,48.0,32.0,-100.00,SSE,158,3.0,8.0,54,0.00,,,0.00,127.000000,,2013-12-21 00:52:00,
2013-12-20 17:22:00,45.0,33.0,-100.00,South,177,7.0,9.0,62,0.00,,,0.00,17.000000,,2013-12-21 01:22:00,
2013-12-20 17:32:00,45.0,33.0,-100.00,South,177,7.0,9.0,62,0.00,,,0.00,17.000000,,2013-12-21 01:32:00,
2013-12-20 17:42:00,45.0,33.0,-100.00,South,177,7.0,9.0,62,0.00,,,0.00,17.000000,,2013-12-21 01:42:00,
2013-12-20 17:52:00,45.0,33.0,-100.00,South,177,7.0,9.0,62,0.00,,,0.00,17.000000,,2013-12-21 01:52:00,
2013-12-20 18:21:00,40.0,28.0,-100.00,SE,146,11.0,15.0,61,0.00,,,0.00,0.000000,,2013-12-21 02:21:00,
2013-12-20 18:32:00,40.0,28.0,-100.00,SE,146,11.0,15.0,61,0.00,,,0.00,0.000000,,2013-12-21 02:32:00,
2013-12-20 18:42:00,40.0,28.0,-100.00,SE,146,11.0,15.0,61,0.00,,,0.00,0.000000,,2013-12-21 02:42:00,
2013-12-20 18:52:00,40.0,28.0,-100.00,SE,146,11.0,15.0,61,0.00,,,0.00,0.000000,,2013-12-21 02:52:00,
2013-12-20 19:21:00,40.0,28.0,-100.00,SSE,154,6.0,13.0,63,0.00,,,0.00,0.000000,,2013-12-21 03:21:00,
2013-12-20 19:33:00,40.0,28.0,-100.00,SSE,154,6.0,13.0,63,0.00,,,0.00,0.000000,,2013-12-21 03:33:00,
2013-12-20 19:43:00,40.0,28.0,-100.00,SSE,154,6.0,13.0,63,0.00,,,0.00,0.000000,,2013-12-21 03:43:00,
2013-12-20 19:53:00,40.0,28.0,-100.00,SSE,154,6.0,13.0,63,0.00,,,0.00,0.000000,,2013-12-21 03:53:00,
2013-12-20 20:23:00,37.0,28.0,-100.00,NNE,28,3.0,9.0,70,0.00,,,0.00,0.000000,,2013-12-21 04:23:00,
2013-12-20 20:32:00,37.0,28.0,-100.00,NNE,28,3.0,9.0,70,0.00,,,0.00,0.000000,,2013-12-21 04:32:00,
2013-12-20 20:42:00,37.0,28.0,-100.00,NNE,28,3.0,9.0,70,0.00,,,0.00,0.000000,,2013-12-21 04:42:00,
2013-12-20 20:52:00,37.0,28.0,-100.00,NNE,28,3.0,9.0,70,0.00,,,0.00,0.000000,,2013-12-21 04:52:00,
2013-12-20 21:22:00,36.0,28.0,-100.00,North,357,2.0,7.0,71,0.00,,,0.00,0.000000,,2013-12-21 05:22:00,
2013-12-20 21:32:00,36.0,28.0,-100.00,North,357,2.0,7.0,71,0.00,,,0.00,0.000000,,2013-12-21 05:32:00,
2013-12-20 21:42:00,36.0,28.0,-100.00,North,357,2.0,7.0,71,0.00,,,0.00,0.000000,,2013-12-21 05:42:00,
2013-12-20 21:52:00,36.0,28.0,-100.00,North,357,2.0,7.0,71,0.00,,,0.00,0.000000,,2013-12-21 05:52:00,
2013-12-20 22:21:00,36.0,29.0,-100.00,SSE,165,3.0,6.0,77,0.00,,,0.00,0.000000,,2013-12-21 06:21:00,
2013-12-20 22:32:00,36.0,29.0,-100.00,SSE,165,3.0,6.0,77,0.00,,,0.00,0.000000,,2013-12-21 06:32:00,
2013-12-20 22:42:00,36.0,29.0,-100.00,SSE,165,3.0,6.0,77,0.00,,,0.00,0.000000,,2013-12-21 06:42:00,
2013-12-20 22:52:00,36.0,29.0,-100.00,SSE,165,3.0,6.0,77,0.00,,,0.00,0.000000,,2013-12-21 06:52:00,
2013-12-20 23:22:00,34.0,28.0,-100.00,North,-999,0.0,5.0,78,0.00,,,0.00,0.000000,,2013-12-21 07:22:00,
2013-12-20 23:32:00,34.0,28.0,-100.00,North,-999,0.0,5.0,78,0.00,,,0.00,0.000000,,2013-12-21 07:32:00,
2013-12-20 23:42:00,34.0,28.0,-100.00,North,-999,0.0,5.0,78,0.00,,,0.00,0.000000,,2013-12-21 07:42:00,
2013-12-20 23:52:00,34.0,28.0,-100.00,North,-999,0.0,5.0,78,0.00,,,0.00,0.000000,,2013-12-21 07:52:00,